sat.trackr.live / text

‹ back to catalog

STARLINK-36672

NORAD 68674 · 2026-077N

PAYLOAD ACTIVE UNKNOWN

§ Identity

Operator
Country
US
Launch date
2026-04-11
Launch site
AFWTR
Launch vehicle
Mass (kg)
RCS (m²)

Purposes: comms

External: N2YO · Heavens-Above · Gunter

§ Orbital elements

Epoch: 2026-05-25T03:09:27.586656Z

Period
93.91 min
Inclination
97.2871°
Eccentricity
0.0004723
Mean motion
15.33418534 rev/d
Perigee alt
462.4 km
Apogee alt
468.9 km
Semi-major
6,843.8 km
B*
5.9209e-4
RAAN
16.7172°
Arg perigee
125.9023°
Mean anomaly
234.2659°
Rev number
687

§ Raw data

STARLINK-366721 68674U 26077N   26145.13156929  .00019078  00000+0  59209-3 0  99992 68674  97.2871  16.7172 0004723 125.9023 234.2659 15.33418534  6878

JSON: /api/v1/satellites/68674 · /tle

For live sub-satellite position, see the globe view (requires WebGL).

§ Visibility from observer

Set your observer location to see the next 7 days of passes ≥ 10°. The values pass through the URL so the page stays shareable.

No JS? Fill the form by hand. The geolocation button needs JavaScript.